Tyler, TX

7:18 PM CDT on July 27, 2017 (GMT -0500)
Tyler Pounds

Weather History for KTYR - October, 2012

Change the Weather History Date:

Friday, October 19, 2012

  Actual Average Record
Temperature  
Mean Temperature 61 °F 66 °F  
Max Temperature 76 °F 77 °F 94 °F (1921)
Min Temperature 46 °F 55 °F 34 °F (1989)
Degree Days  
Heating Degree Days 4 2  
Month to date heating degree days 42 25  
Since 1 July heating degree days 44 30  
Cooling Degree Days 0 3  
Month to date cooling degree days 103 97  
Year to date cooling degree days 2917 2361  
Growing Degree Days 10 (Base 50)    
Moisture  
Dew Point 37 °F    
Average Humidity 51    
Maximum Humidity 86    
Minimum Humidity 16    
Precipitation  
Precipitation 0.00 in 0.18 in 8.02 in (1985)
Month to date precipitation 1.04 2.82  
Year to date precipitation 30.48 35.42  
Snow  
Snow 0.00 in - - ()
Month to date snowfall 0.0  
Since 1 July snowfall 0.0  
Since 1 September snowfall 0.0  
Snow Depth 0.00 in    
Sea Level Pressure  
Sea Level Pressure 29.96 in    
Wind  
Wind Speed 6 mph (WSW)    
Max Wind Speed 17 mph    
Max Gust Speed 23 mph    
Visibility 10 miles    
Events      
T = Trace of Precipitation, MM = Missing Value Source: NWS Daily Summary

Daily Weather History Graph

Daily Weather History Graph

Search for Another Location

Airport or City:

Trip Planner

Search our weather history database for the weather conditions in past years. The results will help you decide how hot, cold, wet, or windy it might be!

Date:

Astronomy

Oct. 19, 2012 Rise Set
Actual Time 7:28 AM CDT 6:43 PM CDT
Civil Twilight 7:03 AM CDT 7:08 PM CDT
Nautical Twilight 6:35 AM CDT 7:37 PM CDT
Astronomical Twilight 6:06 AM CDT 8:05 PM CDT
Moon 12:01 PM CDT (10/19) 10:34 PM CDT (10/19)
Length of Visible Light 12h 04m
Length of Day
11h 15m
Waxing Crescent, 24% of the Moon is Illuminated
Oct 19
Waxing Crescent
Oct 21
First Quarter
Oct 29
Full
Nov 6
Last Quarter
Nov 13
New

Hourly Weather History & Observations

Time (CDT) Temp. Windchill Dew Point Humidity Pressure Visibility Wind Dir Wind Speed Gust Speed Precip Events Conditions
12:53 AM 51.1 °F - 43.0 °F 74% 29.98 in 10.0 mi Calm Calm - N/A   Clear
1:53 AM 48.0 °F - 43.0 °F 83% 29.97 in 10.0 mi Calm Calm - N/A   Clear
2:53 AM 46.9 °F - 43.0 °F 86% 29.96 in 10.0 mi SSW 6.9 mph - N/A   Clear
3:53 AM 46.0 °F 43.1 °F 41.0 °F 83% 29.95 in 10.0 mi SSW 5.8 mph - N/A   Clear
4:53 AM 53.1 °F - 39.9 °F 61% 29.95 in 10.0 mi SW 4.6 mph - N/A   Clear
5:53 AM 53.1 °F - 37.9 °F 57% 29.96 in 10.0 mi SW 8.1 mph - N/A   Clear
6:53 AM 51.1 °F - 39.0 °F 63% 29.97 in 10.0 mi Calm Calm - N/A   Clear
7:53 AM 52.0 °F - 37.9 °F 59% 30.00 in 9.0 mi WNW 6.9 mph - N/A   Clear
8:53 AM 55.9 °F - 39.0 °F 53% 30.01 in 8.0 mi West 5.8 mph - N/A   Clear
9:53 AM 61.0 °F - 37.9 °F 42% 30.02 in 10.0 mi WNW 8.1 mph - N/A   Clear
10:53 AM 66.9 °F - 36.0 °F 32% 30.02 in 10.0 mi WNW 10.4 mph - N/A   Clear
11:53 AM 70.0 °F - 30.0 °F 23% 30.01 in 10.0 mi NW 10.4 mph - N/A   Clear
12:53 PM 73.0 °F - 28.0 °F 19% 29.99 in 10.0 mi NW 11.5 mph 18.4 mph N/A   Clear
1:53 PM 73.9 °F - 28.9 °F 19% 29.97 in 10.0 mi West 11.5 mph - N/A   Clear
2:53 PM 75.9 °F - 28.0 °F 17% 29.95 in 10.0 mi WNW 8.1 mph 18.4 mph N/A   Clear
3:53 PM 75.9 °F - 26.1 °F 16% 29.93 in 10.0 mi WNW 11.5 mph 19.6 mph N/A   Clear
4:53 PM 75.9 °F - 28.9 °F 18% 29.92 in 10.0 mi West 6.9 mph - N/A   Clear
5:53 PM 73.9 °F - 30.0 °F 20% 29.91 in 10.0 mi WNW 6.9 mph - N/A   Clear
6:53 PM 66.9 °F - 39.9 °F 37% 29.91 in 10.0 mi WSW 3.5 mph - N/A   Clear
7:53 PM 64.9 °F - 39.0 °F 39% 29.92 in 10.0 mi SW 4.6 mph - N/A   Clear
8:53 PM 63.0 °F - 39.9 °F 43% 29.93 in 10.0 mi SW 4.6 mph - N/A   Clear
9:53 PM 54.0 °F - 43.0 °F 66% 29.94 in 10.0 mi SSW 3.5 mph - N/A   Clear
10:53 PM 53.1 °F - 45.0 °F 74% 29.93 in 10.0 mi South 3.5 mph - N/A   Clear
11:53 PM 52.0 °F - 44.1 °F 74% 29.94 in 10.0 mi South 4.6 mph - N/A   Clear